Location: Dealu Mare
(46.0500°N, 22.8167°E)
Time: 22:35:27
(UTC+00:00)

Sich 1 - Pass Details

Date: 15 January 2026
Orbit: 571 x 598 km, 82.5° (Epoch: 10 February)

Event Time Altitude Azimuth Distance (km) Brightness Sun altitude
Rises 04:32:14 0° 214° (SSW) 2,803 6.2 -16.0°
Reaches altitude 10° 04:34:39 10° 225° (SW) 1,903 5.3 -15.6°
Maximum altitude 04:38:20 29° 287° (WNW) 1,076 3.7 -15.0°
Drops below altitude 10° 04:42:01 10° 348° (NNW) 1,902 5.3 -14.4°
Sets 04:44:26 0° 360° (N) 2,802 6.3 -14.0°
